Weather History for KHQM - May, 2013

Change the Weather History Date:

Saturday, May 4, 2013

  Actual Average Record
Temperature  
Mean Temperature 64 °F 51 °F  
Max Temperature 83 °F 58 °F 83 °F (2013)
Min Temperature 45 °F 44 °F 35 °F (1955)
Degree Days  
Heating Degree Days 1 14  
Month to date heating degree days 42 56  
Cooling Degree Days 0 0  
Month to date cooling degree days 0 0  
Year to date cooling degree days 0 0  
Growing Degree Days 14 (Base 50)    
Moisture  
Dew Point 43 °F    
Average Humidity 56    
Maximum Humidity 93    
Minimum Humidity 18    
Precipitation  
Precipitation 0.00 in 0.13 in 1.17 in (1979)
Month to date precipitation 0.00 0.50  
Year to date precipitation 26.32 30.13  
Sea Level Pressure  
Sea Level Pressure 30.10 in    
Wind  
Wind Speed 8 mph (NE)    
Max Wind Speed 20 mph    
Max Gust Speed 26 mph    
Visibility 10 miles    
Events      
T = Trace of Precipitation, MM = Missing Value Source: NWS Daily Summary

Daily Weather History Graph

Daily Weather History Graph

Search for Another Location

Airport or City:

Trip Planner

Search our weather history database for the weather conditions in past years. The results will help you decide how hot, cold, wet, or windy it might be!

Date:

Astronomy

May. 04, 2013 Rise Set
Actual Time 5:55 AM PDT 8:30 PM PDT
Civil Twilight 5:20 AM PDT 9:05 PM PDT
Nautical Twilight 4:37 AM PDT 9:48 PM PDT
Astronomical Twilight 3:47 AM PDT 10:39 PM PDT
Moon 3:16 AM PDT (5/4) 3:16 PM PDT (5/4)
Length of Visible Light 15h 44m
Length of Day
14h 35m
Waning Crescent, 26% of the Moon is Illuminated
May 4
Waning Crescent
May 9
New
May 17
First Quarter
May 24
Full
May 31
Last Quarter

Hourly Weather History & Observations

Time (PDT) Temp. Dew Point Humidity Pressure Visibility Wind Dir Wind Speed Gust Speed Precip Events Conditions
12:53 AM 48.9 °F 46.9 °F 93% 30.22 in 10.0 mi Calm Calm - N/A   Clear
1:53 AM 48.0 °F 46.0 °F 93% 30.22 in 10.0 mi Calm Calm - N/A   Clear
2:53 AM 48.0 °F 45.0 °F 89% 30.20 in 10.0 mi NE 4.6 mph - N/A   Clear
3:53 AM 46.9 °F 45.0 °F 93% 30.19 in 10.0 mi ENE 3.5 mph - N/A   Clear
4:53 AM 46.9 °F 44.1 °F 90% 30.19 in 10.0 mi ENE 3.5 mph - N/A   Clear
5:53 AM 48.0 °F 43.0 °F 83% 30.19 in 10.0 mi NE 5.8 mph - N/A   Clear
6:53 AM 51.1 °F 44.1 °F 77% 30.19 in 10.0 mi NE 10.4 mph - N/A   Clear
7:53 AM 57.0 °F 43.0 °F 59% 30.19 in 10.0 mi NNE 6.9 mph - N/A   Clear
8:53 AM 57.9 °F 48.0 °F 70% 30.19 in 10.0 mi East 6.9 mph - N/A   Clear
9:53 AM 66.0 °F 46.0 °F 48% 30.18 in 10.0 mi NE 13.8 mph - N/A   Clear
10:53 AM 70.0 °F 46.9 °F 44% 30.17 in 10.0 mi ENE 12.7 mph - N/A   Clear
11:53 AM 73.0 °F 46.9 °F 39% 30.15 in 10.0 mi ENE 10.4 mph - N/A   Clear
12:53 PM 75.0 °F 46.0 °F 36% 30.12 in 10.0 mi East 13.8 mph - N/A   Clear
1:53 PM 77.0 °F 46.9 °F 34% 30.09 in 10.0 mi East 12.7 mph 18.4 mph N/A   Clear
2:53 PM 79.0 °F 45.0 °F 30% 30.07 in 10.0 mi ENE 11.5 mph - N/A   Clear
3:53 PM 82.9 °F 37.0 °F 19% 30.04 in 10.0 mi North 12.7 mph 19.6 mph N/A   Clear
4:53 PM 82.0 °F 36.0 °F 19% 30.02 in 10.0 mi ENE 11.5 mph - N/A   Clear
5:53 PM 81.0 °F 36.0 °F 20% 30.00 in 10.0 mi NE 17.3 mph 20.7 mph N/A   Clear
6:53 PM 80.1 °F 35.1 °F 20% 29.99 in 10.0 mi NE 12.7 mph - N/A   Clear
7:53 PM 77.0 °F 35.1 °F 22% 29.98 in 10.0 mi NE 9.2 mph - N/A   Clear
8:53 PM 73.0 °F 36.0 °F 26% 29.98 in 10.0 mi Calm Calm - N/A   Clear
9:53 PM 66.0 °F 44.1 °F 45% 29.98 in 10.0 mi NNE 3.5 mph - N/A   Clear
10:53 PM 63.0 °F 46.0 °F 54% 29.97 in 10.0 mi NE 3.5 mph - N/A   Clear
11:53 PM 57.0 °F 46.0 °F 67% 29.97 in 10.0 mi ENE 4.6 mph - N/A   Clear